User: anonymous   Login
Location: Roanoke
(37.2710°N, 79.9420°W)
Time: 16:14:49
(UTC-05:00)
Language:

A-11 Canister half - Orbit

View from above orbital plane
View from above orbital plane
View from above satellite
View from above satellite

Ground track
Ground track

The orbit data is extracted from the following two-line orbital elements,

1    51U 60009C   19317.50966063 -.00000031  00000-0  51516-3 0  9993
2    51  47.2133 298.5851 0107626 239.4089 119.6046 12.18274900637639
Epoch (UTC): 13 November 2019 12:13:54
Eccentricity: 0.0107626
inclination: 47.2133°
perigee height: 1514 km
apogee height: 1686 km
right ascension of ascending node: 298.5851°
argument of perigee: 239.4089°
revolutions per day: 12.18274900
mean anomaly at epoch: 119.6046°
orbit number at epoch: 63763

The dashed part of the orbit path shows where the satellite is in the earth's shadow,  

DLR